sat.trackr.live / text

‹ back to catalog

STARLINK-36364

NORAD 67978 · 2026-038T

PAYLOAD ACTIVE UNKNOWN

§ Identity

Operator
Country
US
Launch date
2026-02-25
Launch site
AFWTR
Launch vehicle
Mass (kg)
RCS (m²)

Purposes: comms

External: N2YO · Heavens-Above · Gunter

§ Orbital elements

Epoch: 2026-05-24T23:23:53.216736Z

Period
93.91 min
Inclination
97.2822°
Eccentricity
0.0001709
Mean motion
15.33457969 rev/d
Perigee alt
464.3 km
Apogee alt
466.7 km
Semi-major
6,843.6 km
B*
5.0708e-4
RAAN
155.0595°
Arg perigee
99.6033°
Mean anomaly
260.5403°
Rev number
1,493

§ Raw data

STARLINK-363641 67978U 26038T   26144.97492149  .00016338  00000+0  50708-3 0  99912 67978  97.2822 155.0595 0001709  99.6033 260.5403 15.33457969 14935

JSON: /api/v1/satellites/67978 · /tle

For live sub-satellite position, see the globe view (requires WebGL).

§ Visibility from observer

Set your observer location to see the next 7 days of passes ≥ 10°. The values pass through the URL so the page stays shareable.

No JS? Fill the form by hand. The geolocation button needs JavaScript.